TimeCDT,TemperatureF,Dew PointF,Humidity,Sea Level PressureIn,VisibilityMPH,Wind Direction,Wind SpeedMPH,Gust SpeedMPH,PrecipitationIn,Events,Conditions,WindDirDegrees,DateUTC
12:15 AM,72.7,58.1,60,30.02,10.0,Calm,Calm,-,N/A,,Clear,0,2013-08-20 05:15:00
12:35 AM,72.1,58.1,61,30.02,10.0,Calm,Calm,-,N/A,,Clear,0,2013-08-20 05:35:00
12:55 AM,70.3,57.2,63,30.02,10.0,SE,4.6,-,N/A,,Clear,140,2013-08-20 05:55:00
1:15 AM,75.2,56.7,52,30.03,10.0,SSE,3.5,-,N/A,,Clear,150,2013-08-20 06:15:00
1:35 AM,76.1,58.3,54,30.04,10.0,South,4.6,-,N/A,,Clear,170,2013-08-20 06:35:00
1:55 AM,75.4,59.2,57,30.04,10.0,Calm,Calm,-,N/A,,Clear,0,2013-08-20 06:55:00
2:15 AM,74.7,59.9,60,30.04,10.0,Calm,Calm,-,N/A,,Clear,0,2013-08-20 07:15:00
2:35 AM,73.6,60.4,63,30.04,10.0,Calm,Calm,-,N/A,,Clear,0,2013-08-20 07:35:00
2:55 AM,73.9,61.3,65,30.04,10.0,Calm,Calm,-,N/A,,Clear,0,2013-08-20 07:55:00
3:15 AM,73.8,61.2,65,30.04,10.0,Calm,Calm,-,N/A,,Clear,0,2013-08-20 08:15:00
3:35 AM,73.8,60.4,63,30.04,10.0,South,6.9,-,N/A,,Clear,180,2013-08-20 08:35:00
3:55 AM,73.4,59.9,63,30.04,10.0,South,3.5,-,N/A,,Clear,180,2013-08-20 08:55:00
4:15 AM,71.4,60.4,68,30.04,10.0,Calm,Calm,-,N/A,,Clear,0,2013-08-20 09:15:00
4:35 AM,70.3,60.4,71,30.04,10.0,Calm,Calm,-,N/A,,Clear,0,2013-08-20 09:35:00
4:55 AM,70.5,60.3,70,30.04,10.0,Calm,Calm,-,N/A,,Clear,0,2013-08-20 09:55:00
5:15 AM,68.7,59.9,73,30.04,10.0,Calm,Calm,-,N/A,,Clear,0,2013-08-20 10:15:00
5:35 AM,66.7,59.2,77,30.04,10.0,Calm,Calm,-,N/A,,Clear,0,2013-08-20 10:35:00
5:55 AM,68.0,59.0,73,30.04,10.0,Calm,Calm,-,N/A,,Clear,0,2013-08-20 10:55:00
6:15 AM,66.4,58.8,77,30.04,10.0,Calm,Calm,-,N/A,,Clear,0,2013-08-20 11:15:00
6:35 AM,66.4,59.4,78,30.04,10.0,Calm,Calm,-,N/A,,Clear,0,2013-08-20 11:35:00
6:55 AM,65.1,58.3,78,30.04,10.0,NW,3.5,-,N/A,,Clear,320,2013-08-20 11:55:00
7:15 AM,63.9,57.9,81,30.05,10.0,Calm,Calm,-,N/A,,Clear,0,2013-08-20 12:15:00
7:35 AM,64.6,58.3,80,30.06,10.0,Calm,Calm,-,N/A,,Clear,0,2013-08-20 12:35:00
7:55 AM,66.9,59.0,76,30.06,10.0,NNW,3.5,-,N/A,,Clear,330,2013-08-20 12:55:00
8:15 AM,69.3,59.9,72,30.06,10.0,Calm,Calm,-,N/A,,Clear,0,2013-08-20 13:15:00
8:35 AM,70.9,60.8,70,30.06,10.0,Calm,Calm,-,N/A,,Clear,0,2013-08-20 13:35:00
8:55 AM,73.6,62.2,68,30.06,10.0,Calm,Calm,-,N/A,,Clear,0,2013-08-20 13:55:00
9:15 AM,74.3,63.0,68,30.07,10.0,Calm,Calm,-,N/A,,Clear,0,2013-08-20 14:15:00
9:35 AM,76.8,62.6,61,30.07,10.0,Calm,Calm,-,N/A,,Clear,0,2013-08-20 14:35:00
9:55 AM,79.3,60.6,53,30.07,10.0,Calm,Calm,-,N/A,,Clear,0,2013-08-20 14:55:00
10:15 AM,81.5,59.7,47,30.07,10.0,SE,3.5,-,N/A,,Clear,130,2013-08-20 15:15:00
10:35 AM,83.8,57.4,40,30.07,10.0,East,5.8,-,N/A,,Clear,100,2013-08-20 15:35:00
10:55 AM,86.2,54.5,34,30.08,10.0,SE,5.8,-,N/A,,Clear,130,2013-08-20 15:55:00
11:15 AM,86.7,54.5,33,30.07,10.0,Calm,Calm,-,N/A,,Clear,0,2013-08-20 16:15:00
11:35 AM,87.6,52.9,30,30.07,10.0,East,6.9,-,N/A,,Clear,90,2013-08-20 16:35:00
11:55 AM,87.8,52.3,30,30.07,10.0,ENE,3.5,-,N/A,,Scattered Clouds,70,2013-08-20 16:55:00
12:15 PM,88.5,52.2,29,30.06,10.0,SE,4.6,-,N/A,,Scattered Clouds,130,2013-08-20 17:15:00
12:35 PM,89.6,51.3,27,30.06,10.0,East,4.6,-,N/A,,Scattered Clouds,100,2013-08-20 17:35:00
12:55 PM,90.0,50.0,25,30.06,10.0,SE,6.9,16.1,N/A,,Scattered Clouds,130,2013-08-20 17:55:00
1:15 PM,90.0,48.7,24,30.06,10.0,ESE,8.1,16.1,N/A,,Clear,120,2013-08-20 18:15:00
1:35 PM,90.9,47.8,23,30.05,10.0,NE,3.5,16.1,N/A,,Clear,50,2013-08-20 18:35:00
1:55 PM,92.1,48.7,23,30.04,10.0,East,12.7,17.3,N/A,,Clear,90,2013-08-20 18:55:00
2:15 PM,91.2,48.6,23,30.04,10.0,ESE,11.5,-,N/A,,Clear,120,2013-08-20 19:15:00
2:35 PM,91.8,48.6,23,30.04,10.0,ENE,9.2,18.4,N/A,,Clear,60,2013-08-20 19:35:00
2:55 PM,91.9,50.7,24,30.04,10.0,East,12.7,18.4,N/A,,Scattered Clouds,80,2013-08-20 19:55:00
3:15 PM,92.8,50.7,24,30.03,10.0,SSE,9.2,16.1,N/A,,Scattered Clouds,150,2013-08-20 20:15:00
3:35 PM,91.6,51.1,25,30.03,10.0,East,9.2,-,N/A,,Scattered Clouds,90,2013-08-20 20:35:00
3:55 PM,92.1,49.3,23,30.02,10.0,East,4.6,18.4,N/A,,Scattered Clouds,90,2013-08-20 20:55:00
4:15 PM,91.6,50.9,25,30.01,10.0,SSE,6.9,-,N/A,,Scattered Clouds,150,2013-08-20 21:15:00
4:35 PM,92.1,49.3,23,30.00,10.0,ESE,5.8,-,N/A,,Scattered Clouds,110,2013-08-20 21:35:00
4:55 PM,89.4,51.8,28,30.00,10.0,ENE,9.2,17.3,N/A,,Scattered Clouds,60,2013-08-20 21:55:00
5:15 PM,91.4,52.9,27,30.00,10.0,East,8.1,-,N/A,,Scattered Clouds,90,2013-08-20 22:15:00
5:35 PM,89.6,52.7,28,29.99,10.0,East,8.1,-,N/A,,Scattered Clouds,90,2013-08-20 22:35:00
5:55 PM,89.6,52.0,28,29.99,10.0,SE,5.8,-,N/A,,Scattered Clouds,140,2013-08-20 22:55:00
6:15 PM,90.3,51.4,26,29.99,10.0,ESE,6.9,-,N/A,,Clear,120,2013-08-20 23:15:00
6:35 PM,89.6,51.1,27,29.98,10.0,ESE,5.8,-,N/A,,Clear,120,2013-08-20 23:35:00
6:55 PM,89.1,50.5,27,29.98,10.0,SE,8.1,-,N/A,,Clear,140,2013-08-20 23:55:00
7:15 PM,85.8,64.0,48,29.99,10.0,SSE,8.1,16.1,N/A,,Clear,150,2013-08-21 00:15:00
7:35 PM,84.4,64.6,51,30.00,10.0,SE,10.4,16.1,N/A,,Clear,140,2013-08-21 00:35:00
7:55 PM,83.3,64.8,53,30.00,10.0,SSE,9.2,-,N/A,,Clear,150,2013-08-21 00:55:00
8:15 PM,82.6,64.0,53,30.00,10.0,SE,9.2,-,N/A,,Clear,140,2013-08-21 01:15:00
8:35 PM,82.0,63.9,54,30.01,10.0,SSE,6.9,-,N/A,,Clear,150,2013-08-21 01:35:00
8:55 PM,81.5,63.9,55,30.01,10.0,Calm,Calm,-,N/A,,Clear,0,2013-08-21 01:55:00
9:15 PM,81.0,64.4,57,30.02,10.0,SE,3.5,-,N/A,,Clear,130,2013-08-21 02:15:00
9:35 PM,80.2,64.4,58,30.03,10.0,SSE,3.5,-,N/A,,Clear,150,2013-08-21 02:35:00
9:55 PM,79.7,65.3,61,30.04,10.0,SSE,4.6,-,N/A,,Clear,160,2013-08-21 02:55:00
10:15 PM,79.0,65.3,63,30.04,10.0,Calm,Calm,-,N/A,,Clear,0,2013-08-21 03:15:00
10:35 PM,78.4,65.3,64,30.05,10.0,SSE,3.5,-,N/A,,Clear,160,2013-08-21 03:35:00
10:55 PM,77.9,65.3,65,30.06,10.0,SE,4.6,-,N/A,,Clear,140,2013-08-21 03:55:00
11:15 PM,77.4,65.5,67,30.06,10.0,SSE,5.8,-,N/A,,Clear,150,2013-08-21 04:15:00
11:35 PM,76.5,66.0,70,30.06,10.0,SE,4.6,-,N/A,,Clear,140,2013-08-21 04:35:00
11:55 PM,75.6,66.2,73,30.07,10.0,Calm,Calm,-,N/A,,Clear,0,2013-08-21 04:55:00